Location: Sungai Kamana Besar
(2.6333°N, 113.4333°E)
Time: 05:42:34
(UTC+00:00)

DELTA 2 DEB (DPAF) - Pass Details

Date: 29 May 2022
Orbit: 634 x 640 km, 98.4° (Epoch: 24 June)

Event Time Altitude Azimuth Distance (km) Brightness Sun altitude
Exits shadow 20:52:38 21° 183° (S) 1,429 5.6 -20.0°
Maximum altitude 20:55:27 61° 258° (WSW) 728 4.0 -19.4°
Drops below altitude 10° 20:59:48 10° 338° (NNW) 2,021 6.7 -18.4°
Sets 21:02:01 0° 342° (NNW) 2,926 7.6 -17.9°
